Location: Presov
(49.0000°N, 21.2500°E)
Time: 06:06:10
(UTC+02:00)

Transit 2A Rocket - Pass Details

Date: 23 April 2021
Orbit: 594 x 909 km, 66.7° (Epoch: 07 May)

Event Time Altitude Azimuth Distance (km) Brightness Sun altitude
Rises 15:46:24 0° 225° (SW) 2,922 8.9 36.3°
Reaches altitude 10° 15:48:45 10° 230° (SW) 1,985 8.4 36.0°
Maximum altitude 15:53:06 58° 309° (NW) 707 5.7 35.3°
Drops below altitude 10° 15:57:22 10° 30° (NNE) 1,937 6.8 34.7°
Sets 15:59:39 0° 34° (NE) 2,845 7.5 34.3°
